Montreal Mirabel, Quebec

12:04 PM EST on December 18, 2017 (GMT -0500)
Montreal Mirabel

Weather History for CYMX - October, 2010

Change the Weather History Date:

Monday, October 18, 2010

  Actual Average Record
Temperature  
Mean Temperature 41 °F -  
Max Temperature 50 °F 50 °F 75 °F (1998)
Min Temperature 32 °F 34 °F 21 °F (2015)
Degree Days  
Heating Degree Days 24    
Moisture  
Dew Point 25 °F    
Average Humidity 53    
Maximum Humidity 70    
Minimum Humidity 34    
Precipitation  
Precipitation 0.00 in - - ()
Sea Level Pressure  
Sea Level Pressure 29.85 in    
Wind  
Wind Speed 4 mph ()    
Max Wind Speed 12 mph    
Max Gust Speed 20 mph    
Averages and records for this station are not official NWS values.
T = Trace of Precipitation, MM = Missing Value Source: Averaged Metar Reports

Daily Weather History Graph

Daily Weather History Graph

Search for Another Location

Airport or City:

Trip Planner

Search our weather history database for the weather conditions in past years. The results will help you decide how hot, cold, wet, or windy it might be!

Date:

Astronomy

Oct. 18, 2010 Rise Set
Actual Time 7:16 AM EDT 6:05 PM EDT
Civil Twilight 6:46 AM EDT 6:35 PM EDT
Nautical Twilight 6:11 AM EDT 7:09 PM EDT
Astronomical Twilight 5:37 AM EDT 7:44 PM EDT
Moon 3:59 PM EDT 2:50 AM EDT
Length of Visible Light 11h 48m
Length of Day
10h 48m
Waxing Gibbous, 83% of the Moon is Illuminated
Oct 18
Waxing Gibbous
Oct 22
Full
Oct 30
Last Quarter
Nov 6
New
Nov 13
First Quarter

Hourly Weather History & Observations

Time (EDT) Temp. Windchill Dew Point Humidity Pressure Visibility Wind Dir Wind Speed Gust Speed Precip Events Conditions
12:00 AM 42.8 °F 40.1 °F 26.6 °F 53% 29.81 in 25.0 mi West 4.6 mph - N/A   Clear
1:00 AM 39.2 °F - 24.8 °F 56% 29.82 in 25.0 mi Calm Calm - N/A   Partly Cloudy
3:00 AM 35.6 °F 32.8 °F 24.8 °F 65% 29.83 in 25.0 mi WSW 3.5 mph - N/A   Clear
4:00 AM 33.8 °F - 23.0 °F 65% 29.84 in 25.0 mi WSW 2.3 mph - N/A   Partly Cloudy
5:00 AM 33.8 °F 30.8 °F 23.0 °F 65% 29.85 in 25.0 mi WSW 3.5 mph - N/A   Partly Cloudy
6:00 AM 32.0 °F - 23.0 °F 69% 29.86 in 25.0 mi WSW 2.3 mph - N/A   Clear
7:00 AM 33.8 °F 30.8 °F 24.8 °F 70% 29.87 in 25.0 mi WSW 3.5 mph - N/A   Mostly Cloudy
8:00 AM 35.6 °F 32.8 °F 26.6 °F 70% 29.88 in 45.0 mi WSW 3.5 mph - N/A   Mostly Cloudy
9:00 AM 39.2 °F - 30.2 °F 70% 29.89 in 45.0 mi West 2.3 mph - N/A   Partly Cloudy
10:00 AM 44.6 °F 42.2 °F 32.0 °F 61% 29.88 in 45.0 mi West 4.6 mph - N/A   Partly Cloudy
11:00 AM 46.4 °F 42.9 °F 28.4 °F 50% 29.86 in 45.0 mi West 6.9 mph - N/A   Partly Cloudy
12:00 PM 48.2 °F - 28.4 °F 46% 29.84 in 45.0 mi WSW 9.2 mph - N/A   Scattered Clouds
1:00 PM 48.2 °F - 26.6 °F 43% 29.83 in 45.0 mi West 5.8 mph - N/A   Mostly Cloudy
1:31 PM 48.2 °F - 26.6 °F 43% - 45.0 mi West 10.4 mph - N/A Rain Light Rain Showers
2:00 PM 48.2 °F - 26.6 °F 43% 29.81 in 45.0 mi WSW 9.2 mph - N/A   Mostly Cloudy
3:00 PM 50.0 °F - 26.6 °F 40% 29.81 in 45.0 mi West 11.5 mph 19.6 mph N/A   Mostly Cloudy
4:00 PM 50.0 °F - 24.8 °F 37% 29.81 in 45.0 mi West 9.2 mph 18.4 mph N/A   Mostly Cloudy
5:00 PM 50.0 °F - 24.8 °F 37% 29.81 in 45.0 mi West 10.4 mph - N/A   Mostly Cloudy
6:00 PM 48.2 °F - 21.2 °F 34% 29.82 in 45.0 mi West 5.8 mph - N/A   Mostly Cloudy
7:00 PM 44.6 °F 43.1 °F 21.2 °F 39% 29.84 in 25.0 mi West 3.5 mph - N/A   Scattered Clouds
8:00 PM 39.2 °F 37.0 °F 21.2 °F 49% 29.85 in 25.0 mi West 3.5 mph - N/A   Partly Cloudy
9:00 PM 41.0 °F - 23.0 °F 49% 29.87 in 25.0 mi West 2.3 mph - N/A   Partly Cloudy
10:00 PM 37.4 °F 34.9 °F 21.2 °F 52% 29.88 in 25.0 mi WSW 3.5 mph - N/A   Partly Cloudy
11:00 PM 33.8 °F - 19.4 °F 56% 29.89 in 25.0 mi WSW 2.3 mph - N/A   Partly Cloudy